Hourly Data Report for March 12, 2015

All times are specified in Local Standard Time (LST). Add 1 hour to adjust for Daylight Saving Time where and when it is observed.

MIRAMICHI RCS
NEW BRUNSWICK

47°00'34.000" N
65°27'54.000" W
33.00 m
8100989
71744
ACQ

Download Data

Hourly Data (March 2015)
Hourly Data Report for March 12, 2015
TIME Temp Definition
°C
Dew Point Definition
°C
Rel Hum Definition
%
Wind Dir Definition
10's deg

Wind Spd Definition
km/h
Visibility Definition
km
Stn Press Definition
kPa
Hmdx Definition


Wind Chill Definition


Weather Definition


00:00 -2.8 -10.3 56 26 12   100.23   -7 LegendNANA
01:00 -2.7 -10.7 54 29 9   100.16   -6 LegendNANA
02:00 -6.3 -11.9 65 24 9   100.19   -11 LegendNANA
03:00 -3.3 -12.9 47 29 14   100.24   -8 LegendNANA
04:00 -3.8 -12.6 50 31 10   100.33   -8 LegendNANA
05:00 -4.3 -13.4 49 33 18   100.45   -10 LegendNANA
06:00 -5.1 -12.7 55 33 5   100.61   -7 LegendNANA
07:00 -5.5 -13.6 53 32 15   100.76   -11 LegendNANA
08:00 -5.9 -13.4 55 32 16   100.86   -12 LegendNANA
09:00 -5.2 -13.8 51 33 20   100.94   -12 LegendNANA
10:00 -5.1 -14.0 49 33 19   101.01   -12 LegendNANA
11:00 -4.8 -15.8 42 33 21   101.07   -11 LegendNANA
12:00 -5.2 -15.8 43 32 19   101.18   -12 LegendNANA
13:00 -5.4 -15.9 43 30 23   101.21   -13 LegendNANA
14:00 -5.3 -16.3 42 32 19   101.28   -12 LegendNANA
15:00 -5.6 -18.0 37 31 23   101.34   -13 LegendNANA
16:00 -5.6 -17.4 39 31 22   101.42   -13 LegendNANA
17:00 -6.8 -18.3 40 32 20   101.53   -14 LegendNANA
18:00 -7.9 -17.0 48 32 19   101.64   -15 LegendNANA
19:00 -8.7 -16.9 51 30 19   101.75   -16 LegendNANA
20:00 -9.7 -15.7 62 29 14   101.86   -16 LegendNANA
21:00 -10.1 -17.6 54 30 13   101.93   -16 LegendNANA
22:00 -10.0 -19.6 45 30 20   101.99   -18 LegendNANA
23:00 -10.5 -19.0 50 30 19   102.03   -18 LegendNANA

Notes on Data Quality.

Legend

  • E = Estimated
  • M = Missing
  • NA = Not Available
Date modified: